Regional Weather Roundup
Issued by NWS

Home | Current Version | Previous Version | Graphics & Text | Print | Product List | Glossary On
Versions: 1 2 3 4 5 6 7 8 9 10 11 12 13 14 15 16 17 18 19 20 21 22 23 24 25 26 27 28 29 30 31 32 33 34 35 36 37 38 39 40 41 42 43 44 45 46 47 48 49 50
000
ASUS43 KDMX 211001
RWRIA

WEATHER ROUNDUP FOR IOWA
NATIONAL WEATHER SERVICE DES MOINES IA
400 AM CST TUE NOV 21 2017

NOTE: "FAIR" INDICATES FEW OR NO CLOUDS BELOW 12,000 FEET WITH NO
SIGNIFICANT WEATHER AND/OR OBSTRUCTIONS TO VISIBILITY.

* - THESE STATIONS ARE NOT NWS STATIONS...THUS NOT UNDER NWS
QUALITY CONTROL.  THEY ALSO DO NOT REPORT WEATHER SUCH
AS PRECIPITATION OR FOG.

IAZ001>003-012>014-020>022-031>034-043>046-211100-
   NORTHWEST IOWA

CITY           SKY/WX    TMP DP  RH WIND       PRES   REMARKS
CARROLL *      CLOUDY    41  21  45 N17G28    29.79R
CHEROKEE *     CLOUDY    38  19  47 NW14G20   29.84R WCI  30
DENISON *      CLOUDY    41  25  52 N17G25    29.83R
LE MARS *      CLOUDY    39  18  41 NW15G22   29.88R WCI  31
ORANGE CITY *  CLOUDY    39  19  45 NW18      29.85R WCI  30
SHELDON *      CLOUDY    37  18  44 NW16      29.83R WCI  28
SIOUX CITY     CLOUDY    41  20  43 NW18      29.88R
SPENCER        CLOUDY    38  17  42 NW15G22   29.81R WCI  29
STORM LAKE *   CLOUDY    37  19  48 NW20      29.82R WCI  27
$$

IAZ055>058-069>071-079>083-090>094-211100-
   SOUTHWEST IOWA

CITY           SKY/WX    TMP DP  RH WIND       PRES   REMARKS
ATLANTIC *     CLOUDY    36  30  80 CALM      29.78R
AUDUBON *      CLOUDY    43  25  49 N15G21    29.78R
CLARINDA *     CLOUDY    32  32 100 CALM      29.77R
COUNCIL BLFS * CLOUDY    43  28  56 N10       29.80R
CRESTON *      CLOUDY    37  28  70 NW9       29.77R WCI  31
HARLAN  *      CLOUDY    43  28  56 N15       29.82R
LAMONI         CLOUDY    40  30  67 W7        29.72S
RED OAK *      CLOUDY    37  30  75 N9        29.78R WCI  31
SHENANDOAH *   CLOUDY    32  28  86 CALM      29.79R
$$

IAZ047>049-059>061-072>074-084-211100-
   CENTRAL IOWA

CITY           SKY/WX    TMP DP  RH WIND       PRES   REMARKS
AMES           CLOUDY    42  24  49 N26G41    29.72S
ANKENY *       MOCLDY    43  27  52 N9G17     29.77R
BOONE *        CLOUDY    41  21  45 N24G36    29.71F
CHARITON *     CLOUDY    39  30  70 NW9       29.73R WCI  33
DES MOINES     CLOUDY    45  26  47 N15       29.75R
GRINNELL*      CLOUDY    40  31  70 NW9       29.73R WCI  33
KNOXVILLE *    MOCLDY    43  28  56 NW12      29.73R
MARSHALLTOWN   MOCLDY    40  28  62 NW13      29.73R WCI  32
NEWTON *       MOCLDY    43  28  56 N17G24    29.74R
PELLA *        CLOUDY    43  30  60 NW8       29.74R
PERRY *          N/A     40  25  54 N13       29.77R WCI  33
$$

IAZ004>006-015-016-023>025-035-036-211100-
   NORTH CENTRAL IOWA

CITY           SKY/WX    TMP DP  RH WIND       PRES   REMARKS
ALGONA *       CLOUDY    37  19  48 NW13G20   29.78R WCI  29
CLARION *      CLOUDY    37  23  56 NW21      29.77R WCI  27
ESTHERVILLE    CLOUDY    35  16  45 NW16G25   29.78R WCI  25
FORT DODGE *   CLOUDY    39  23  52 VRB7      29.79R WCI  34
MASON CITY     CLOUDY    36  14  40 NW25G35   29.73R WCI  24
FOREST CITY *  CLOUDY    36  18  48 NW15G22   29.73S WCI  26
WEBSTER CITY * CLOUDY    39  25  56 NW17      29.75R WCI  30
IOWA FALLS *   CLOUDY    39  26  58 NW18      29.75R WCI  30
$$

IAZ007>011-017>019-026>030-037>042-050>054-066-211100-
   NORTHEAST IOWA

CITY           SKY/WX    TMP DP  RH WIND       PRES   REMARKS
CEDAR RAPIDS   PTCLDY    38  30  73 W8        29.68R WCI  32
CHARLES CITY * CLOUDY    37  21  52 NW20      29.70R WCI  27
CLINTON *      CLEAR     39  32  76 W9        29.67S WCI  33
DECORAH *      CLOUDY    37  25  60 W12G21    29.63S WCI  30
DUBUQUE        PTCLDY    39  30  70 W9        29.65R WCI  33
MONTICELLO *   PTCLDY    39  30  70 W7        29.68R WCI  34
OELWEIN *      CLOUDY    39  28  65 NW15G22   29.67S WCI  31
WATERLOO       CLOUDY    39  27  62 W12       29.70R WCI  32
$$

IAZ064-065-067-068-078-211100-
   EAST CENTRAL IOWA

CITY           SKY/WX    TMP DP  RH WIND       PRES   REMARKS
DAVENPORT      CLEAR     44  31  60 SW14      29.70R
IOWA CITY      PTCLDY    41  31  67 NW10      29.70S
MT. PLEASANT * CLOUDY    39  30  70 SW7       29.72R WCI  34
MUSCATINE *    PTCLDY    45  32  61 SW5       29.71R
QUAD CITIES    CLEAR     40  30  67 SW7       29.69R
$$

IAZ062-063-075>077-085>089-095>099-211100-
   SOUTHEAST IOWA

CITY           SKY/WX    TMP DP  RH WIND       PRES   REMARKS
BURLINGTON     PTCLDY    44  33  65 SW9       29.71R
FAIRFIELD *    PTCLDY    43  30  61 W6        29.70S
FORT MADISON * PTCLDY    46  32  57 SW9       29.73R
KEOKUK *       CLEAR     45  32  61 SW9       29.72S
OSKALOOSA *      N/A     37  31  81 W8        29.72R WCI  30
OTTUMWA        CLOUDY    40  30  67 W7        29.71S
WASHINGTON *   PTCLDY    41  32  70 W6        29.71S
$$

ABBREVIATIONS USED IN REMARKS
   TC - TEMPERATURES IN CELSIUS
  WCI - WIND CHILL INDEX
   HX - HEAT INDEX
  VSB - VISIBILITY
$$





USA.gov is the U.S. government's official web portal to all federal, state and local government web resources and services.